Regional Weather Roundup
Issued by NWS

Home | Current Version | Previous Version | Graphics & Text | Print | Product List | Glossary On
Versions: 1 2 3 4 5 6 7 8 9 10 11 12 13 14 15 16 17 18 19 20 21 22 23 24 25 26 27 28 29 30 31 32 33 34 35 36 37 38 39 40 41 42 43 44 45 46 47 48 49 50
000
ASUS43 KMPX 021710
RWRMN
WEATHER ROUNDUP FOR MINNESOTA
NATIONAL WEATHER SERVICE TWIN CITIES/CHANHASSEN MN
1200 PM CDT THU OCT 02 2014


NOTE: "FAIR" INDICATES FEW OR NO CLOUDS BELOW 12,000 FEET WITH NO
SIGNIFICANT WEATHER AND/OR OBSTRUCTIONS TO VISIBILITY. N/A MEANS
CURRENT SKY AND/OR WEATHER CONDITIONS ARE NOT AVAILABLE.

MNZ060>063-068>070-021800-
   Twin Cities Metro

CITY           SKY/WX    TMP DP  RH WIND       PRES   REMARKS
TWIN CITIES    CLOUDY    59  56  89 N5        29.82F
ST PAUL        CLOUDY    59  57  93 N5        29.83F FOG
CRYSTAL        CLOUDY    60  53  77 N5        29.82S
LAKEVILLE      CLOUDY    59  57  94 N5        29.81F FOG
EDEN PRAIRIE   LGT RAIN  58  56  93 N7        29.81F FOG
SOUTH ST PAUL  CLOUDY    60  57  90 N6        29.81F FOG
LAKE ELMO      CLOUDY    59  57  94 N5        29.83F FOG
$$
MNZ001>005-007-008-013>017-022>024-027-028-021800-
   Northwest Minnesota

CITY           SKY/WX    TMP DP  RH WIND       PRES   REMARKS
BEMIDJI        CLOUDY    55  47  73 W8        29.82R
HALLOCK        MOSUNNY   57  45  62 CALM      29.78S
ROSEAU         PTSUNNY   55  48  76 W5        29.79S
WARROAD        CLOUDY    54  50  87 SW5       29.79S
THIEF RVR FALL CLOUDY    55  46  71 SW7       29.81R
CROOKSTON      PTSUNNY   57  48  72 W5        29.82S
FOSSTON        CLOUDY    54  48  82 SW7       29.83R
DETROIT LAKES  CLOUDY    54  50  87 SW5       29.84F
MOORHEAD       PTSUNNY   59  52  77 W6        29.84
PARK RAPIDS    CLOUDY    54  48  80 W5        29.83S
MAHNOMEN         N/A    N/A N/A N/A MISG        N/A
$$
MNZ006-009>011-018-025>026-021800-
   North Central Minnesota

CITY           SKY/WX    TMP DP  RH WIND       PRES   REMARKS
BAUDETTE       CLOUDY    58  46  64 VRB5      29.78F
FLAG ISLAND    PTSUNNY   54  48  82 CALM      29.76S
INTL FALLS     PTSUNNY   58  49  72 VRB6      29.78F
WASKISH        CLOUDY    57  52  82 CALM      29.80S
BIG FORK         N/A    N/A N/A N/A W3        29.81
LONGVILLE      LGT RAIN  55  52  88 CALM      29.82F
GRAND RAPIDS   CLOUDY    54  48  82 SW5       29.83R
CRANE LAKE     CLOUDY    55  52  88 S6        29.80F
ORR            CLOUDY    54  52  94 CALM      29.78S
COOK           CLOUDY    55  52  88 SW7       29.81R
WALKER         CLOUDY    54  48  78 W3        29.83S
$$
MNZ012-019>021-037-021800-
   Northeast Minnesota

CITY           SKY/WX    TMP DP  RH WIND       PRES   REMARKS
DULUTH         CLOUDY    56  51  84 S7        29.83R
ELY            CLOUDY    55  52  88 S5        29.81S
HIBBING        CLOUDY    55  51  86 SW5       29.82S
DULUTH HARBOR  CLOUDY    55  54  94 CALM      29.83F
TWO HARBORS    CLOUDY    54  48  82 S5        29.81S
SILVER BAY     CLOUDY    54  54 100 S3        29.81S
GRAND MARAIS     N/A     53  51  93 CALM      29.81F
G MARAIS ARPRT CLOUDY    52  48  87 CALM      29.82F
$$
MNZ029>031-032-039>041-046>048-054>057-064-021800-
   West Central Minnesota

CITY           SKY/WX    TMP DP  RH WIND       PRES   REMARKS
FERGUS FALLS   CLOUDY    54  46  76 CALM      29.86F
WHEATON        CLOUDY    55  48  76 CALM      29.88F
MORRIS         LGT RAIN  55  52  88 SW3       29.87F
ALEXANDRIA     CLOUDY    53  50  89 SW3       29.88S
ELBOW LAKE     FAIR      53  49  88 W5        29.86F
WADENA         DRIZZLE   52  48  87 CALM      29.84S
GLENWOOD       CLOUDY    52  50  93 CALM      29.89R
APPLETON       LGT RAIN  55  52  88 CALM      29.88F
BENSON         LGT RAIN  54  52  94 CALM      29.89S
ORTONVILLE     DRIZZLE   55  50  82 CALM      29.88F
MADISON        LGT RAIN  57  52  82 CALM      29.89F
WILLMAR        LGT RAIN  54  52  94 NW6       29.90S
$$
MNZ033>034-036-042>043-049>051-058-059-021800-
   Central Minnesota

CITY           SKY/WX    TMP DP  RH WIND       PRES   REMARKS
ST CLOUD       CLOUDY    59  52  77 W8        29.85F
SAUK CENTRE    LGT RAIN  52  51  95 W5        29.89R
PAYNESVILLE    LGT RAIN  52  50  94 W5        29.88F
AITKIN         CLOUDY    57  52  82 CALM      29.83S
PINE RIVER     LGT RAIN  54  52  94 CALM      29.88R
BRAINERD       CLOUDY    55  50  83 SW6       29.85R
STAPLES        LGT RAIN  52  50  93 SW3       29.86R
LONG PRAIRIE   LGT RAIN  52  50  93 CALM      29.88S
LITTLE FALLS   LGT RAIN  54  52  94 SW3       29.87R
LITCHFIELD     DRIZZLE   55  55 100 W8        29.87S
BUFFALO        LGT RAIN  57  53  86 W7        29.86R
MAPLE LAKE     LGT RAIN  57  55  93 NW5       29.86R
$$
MNZ037-044-045-052-053-021800-
   East Central Minnesota

CITY           SKY/WX    TMP DP  RH WIND       PRES   REMARKS
PRINCETON      CLOUDY    59  54  82 W3        29.85S
MORA           CLOUDY    54  50  87 CALM      29.86F
CAMBRIDGE      CLOUDY    61  50  67 NW5       29.81F
RUSH CITY      CLOUDY    57  53  87 CALM      29.84S
MOOSE LAKE     CLOUDY    55  52  88 SW5       29.81F
HINCKLEY       CLOUDY    55  54  94 CALM      29.84F
CLOQUET        CLOUDY    55  52  88 S3        29.83F
MCGREGOR       CLOUDY    54  52  94 S6        29.85R
$$
MNZ071>073-080-081-089-090-097-098-021800-
   Southwest Minnesota

CITY           SKY/WX    TMP DP  RH WIND       PRES   REMARKS
MONTEVIDEO     RAIN      54  52  94 CALM      29.90F
GRANITE FALLS  LGT RAIN  52  51  95 NW5       29.90F
CANBY          LGT RAIN  54  51  89 N3        29.90F
MARSHALL       CLOUDY    54  48  82 N9        29.88F
REDWOOD FALLS  LGT RAIN  54  52  93 NW8       29.87F
OLIVIA         LGT RAIN  54  52  94 NW8       29.87F
PIPESTONE      LGT RAIN  54  52  94 NE5       29.89S
WINDOM         LGT RAIN  54  52  94 NW8       29.86S
WORTHINGTON    CLOUDY    54  52  94 NW10      29.88F
JACKSON        CLOUDY    54  52  94 NW7       29.84F
TRACY          RAIN      53  51  94 N8        29.89S
SLAYTON        RAIN      52  51  98 CALM      29.89F
$$
MNZ065>067-074>077-082>085-091>093-021800-
   South Central Minnesota

CITY           SKY/WX    TMP DP  RH WIND       PRES   REMARKS
MANKATO        CLOUDY    57  52  82 NW10      29.82F
NEW ULM        LGT RAIN  54  54 100 NW10      29.85F
ST JAMES       LGT RAIN  55  54  94 N6        29.85F
FAIRMONT       CLOUDY    54  50  87 N9        29.82F
GLENCOE        RAIN      57  56  97 W10       29.85R
FARIBAULT      FOG       57  57 100 CALM      29.83S VSB 1
OWATONNA       CLOUDY    61  57  88 CALM      29.82F FOG
WASECA         DRIZZLE   55  54  94 NE3       29.83F
ALBERT LEA     DRZL/FOG  61  61 100 N3        29.81F VSB 3/4
$$
MNZ078>079-086>088-094>096-021800-
   Southeast Minnesota

CITY           SKY/WX    TMP DP  RH WIND       PRES   REMARKS
ROCHESTER      FOG       59  58  96 N6        29.83S VSB 1/4
RED WING       CLOUDY    61  57  88 SE7       29.81S FOG
STANTON        CLOUDY    62  57  86 E3        29.81S HAZE
DODGE CENTER   FOG       59  57  94 NE3       29.82F VSB 1/4
WINONA         CLOUDY    59  59 100 CALM      29.82S FOG
AUSTIN         CLOUDY    63  63 100 N3        29.80F
PRESTON        CLOUDY    62  61  97 CALM      29.81F FOG
$$
ABBREVIATIONS USED IN REMARKS
   TC - TEMPERATURES IN CELSIUS
  WCI - WIND CHILL INDEX
   HX - HEAT INDEX
  VSB - VISIBILITY
$$


USA.gov is the U.S. government's official web portal to all federal, state and local government web resources and services.